Change the Weather History Date:

Friday, October 26, 2012

  Actual Average (KESC) Record (KESC)
Temperature  
Mean Temperature 36 °F -  
Max Temperature 39 °F 52 °F 68 °F (1964)
Min Temperature 32 °F 38 °F 24 °F (2006)
Degree Days  
Heating Degree Days 30    
Moisture  
Dew Point 27 °F    
Average Humidity 71    
Maximum Humidity 87    
Minimum Humidity 52    
Precipitation  
Precipitation 0.00 in - - ()
Sea Level Pressure  
Sea Level Pressure 30.07 in    
Wind  
Wind Speed 10 mph (West)    
Max Wind Speed 15 mph    
Max Gust Speed 24 mph    
Visibility 10 miles    
Events Rain    
Averages and records for this station are not official NWS values.
T = Trace of Precipitation, MM = Missing Value Source: NWS Daily Summary

Daily Weather History Graph

Daily Weather History Graph

Search for Another Location

Airport or City:

Trip Planner

Search our weather history database for the weather conditions in past years. The results will help you decide how hot, cold, wet, or windy it might be!

Date:

Astronomy

Oct. 26, 2012 Rise Set
Actual Time 8:22 AM EDT 6:43 PM EDT
Civil Twilight 7:51 AM EDT 7:14 PM EDT
Nautical Twilight 7:16 AM EDT 7:49 PM EDT
Astronomical Twilight 6:41 AM EDT 8:24 PM EDT
Moon 5:05 PM EDT (10/26) 5:10 AM EDT (10/26)
Length of Visible Light 11h 22m
Length of Day
10h 20m
Waxing Gibbous, 91% of the Moon is Illuminated
Oct 26
Waxing Gibbous
Oct 29
Full
Nov 6
Last Quarter
Nov 13
New
Nov 20
First Quarter

Hourly Weather History & Observations

Time (EDT) Temp. Windchill Dew Point Humidity Pressure Visibility Wind Dir Wind Speed Gust Speed Precip Events Conditions
12:15 AM 38.3 °F 31.4 °F 33.1 °F 81% 29.82 in 10.0 mi West 10.4 mph - N/A   Overcast
12:36 AM 37.9 °F 29.2 °F 33.1 °F 83% 29.83 in 10.0 mi WNW 15.0 mph 20.7 mph N/A   Overcast
12:56 AM 37.4 °F 28.9 °F 32.5 °F 83% 29.85 in 10.0 mi West 13.8 mph 20.7 mph N/A   Overcast
1:15 AM 37.4 °F 30.3 °F 32.4 °F 82% 29.86 in 10.0 mi WNW 10.4 mph - N/A   Overcast
1:36 AM 37.4 °F 29.8 °F 32.0 °F 81% 29.88 in 10.0 mi West 11.5 mph - N/A   Overcast
1:56 AM 37.4 °F 30.3 °F 32.0 °F 81% 29.89 in 10.0 mi West 10.4 mph - N/A Rain Light Rain
2:15 AM 36.7 °F 28.0 °F 32.0 °F 83% 29.90 in 10.0 mi West 13.8 mph 19.6 mph N/A   Overcast
2:36 AM 36.7 °F 28.9 °F 31.8 °F 83% 29.91 in 10.0 mi West 11.5 mph - N/A   Overcast
2:56 AM 37.0 °F 30.4 °F 30.9 °F 79% 29.92 in 10.0 mi West 9.2 mph - N/A   Overcast
3:16 AM 36.5 °F 29.2 °F 30.2 °F 78% 29.94 in 10.0 mi West 10.4 mph 16.1 mph N/A   Overcast
3:36 AM 35.8 °F 30.1 °F 29.7 °F 78% 29.94 in 10.0 mi West 6.9 mph - N/A   Mostly Cloudy
3:56 AM 34.9 °F 29.0 °F 29.3 °F 80% 29.95 in 10.0 mi West 6.9 mph - N/A   Scattered Clouds
4:16 AM 34.2 °F 27.5 °F 29.3 °F 82% 29.97 in 10.0 mi West 8.1 mph - N/A   Scattered Clouds
4:36 AM 34.0 °F 28.0 °F 29.3 °F 83% 29.97 in 10.0 mi West 6.9 mph - N/A   Mostly Cloudy
4:56 AM 34.7 °F 30.6 °F 29.3 °F 81% 29.98 in 10.0 mi West 4.6 mph - N/A   Overcast
5:16 AM 35.1 °F 27.4 °F 29.3 °F 80% 29.98 in 10.0 mi West 10.4 mph - N/A   Overcast
5:35 AM 35.2 °F 29.5 °F 29.3 °F 79% 29.98 in 10.0 mi West 6.9 mph - N/A   Overcast
5:56 AM 35.2 °F 27.6 °F 28.9 °F 78% 29.99 in 10.0 mi West 10.4 mph 17.3 mph N/A   Overcast
6:50 AM 33.8 °F 26.4 °F 28.4 °F 81% 30.02 in 10.0 mi SE 9.2 mph - N/A   Mostly Cloudy
7:55 AM 32.0 °F 24.2 °F 28.4 °F 87% 30.05 in 10.0 mi SW 9.2 mph - N/A   Scattered Clouds
8:50 AM 33.8 °F 27.0 °F 28.4 °F 81% 30.08 in 10.0 mi SW 8.1 mph - N/A   Mostly Cloudy
9:50 AM 35.6 °F 29.2 °F 28.4 °F 75% 30.10 in 10.0 mi SW 8.1 mph - N/A   Overcast
10:50 AM 37.4 °F 29.8 °F 28.4 °F 70% 30.13 in 10.0 mi WSW 11.5 mph 17.3 mph N/A   Overcast
11:50 AM 39.2 °F 31.6 °F 26.6 °F 61% 30.16 in 10.0 mi West 12.7 mph 24.2 mph N/A   Overcast
12:50 PM 39.2 °F 32.0 °F 26.6 °F 61% 30.18 in 10.0 mi West 11.5 mph 17.3 mph N/A   Overcast
1:50 PM 39.2 °F 33.0 °F 24.8 °F 56% 30.19 in 10.0 mi West 9.2 mph 18.4 mph N/A   Overcast
2:50 PM 39.2 °F 32.5 °F 24.8 °F 56% 30.19 in 10.0 mi West 10.4 mph 17.3 mph N/A   Overcast
3:50 PM 39.2 °F 31.6 °F 23.0 °F 52% 30.19 in 10.0 mi West 12.7 mph - N/A   Overcast
4:50 PM 39.2 °F 33.0 °F 23.0 °F 52% 30.20 in 10.0 mi West 9.2 mph - N/A   Overcast
5:55 PM 39.2 °F 32.0 °F 23.0 °F 52% 30.21 in 10.0 mi West 11.5 mph - N/A   Overcast
6:55 PM 35.6 °F 32.8 °F 23.0 °F 60% 30.22 in 10.0 mi WNW 3.5 mph - N/A   Mostly Cloudy
7:50 PM 35.6 °F 31.7 °F 23.0 °F 60% 30.24 in 10.0 mi WSW 4.6 mph - N/A   Overcast
8:50 PM 35.6 °F - 23.0 °F 60% 30.26 in 10.0 mi Calm Calm - N/A   Overcast
9:50 PM 35.6 °F 31.7 °F 23.0 °F 60% 30.26 in 10.0 mi SSW 4.6 mph - N/A   Overcast
10:16 PM 35.6 °F 31.7 °F 24.1 °F 63% 30.26 in 10.0 mi WSW 4.6 mph - N/A   Overcast
10:36 PM 35.6 °F 32.8 °F 24.3 °F 63% 30.26 in 10.0 mi SW 3.5 mph - N/A   Overcast
10:56 PM 35.8 °F 29.4 °F 22.6 °F 59% 30.27 in 10.0 mi West 8.1 mph - N/A   Overcast
11:15 PM 35.8 °F 30.1 °F 22.6 °F 59% 30.27 in 10.0 mi West 6.9 mph - N/A   Overcast
11:36 PM 35.6 °F 31.7 °F 22.3 °F 58% 30.27 in 10.0 mi WNW 4.6 mph - N/A   Overcast
11:56 PM 35.6 °F 32.8 °F 23.0 °F 60% 30.26 in 10.0 mi West 3.5 mph - N/A   Overcast